| time (UTC) | temp F | wind direction | speed MPH | gust MPH | rain 1hr in | rain 24hr in | rain mn in | humidity % | barometer mb |
| 20260906234549 | 65 | 73 | 0.0 | 0.0 | 0.00 | 0.00 | 0.00 | 76 | 1018.0 |
| 20260906233044 | 67 | 73 | 0.0 | 0.0 | 0.00 | 0.00 | 0.00 | 74 | 1018.0 |
| 20260906231541 | 68 | 73 | 0.0 | 1.0 | 0.00 | 0.00 | 0.00 | 72 | 1018.0 |
| 20260906230042 | 69 | 73 | 0.0 | 2.0 | 0.00 | 0.00 | 0.00 | 68 | 1017.9 |
| 20260906224545 | 70 | 90 | 0.0 | 6.0 | 0.00 | 0.00 | 0.00 | 66 | 1017.8 |
| 20260906223040 | 71 | 71 | 0.0 | 4.0 | 0.00 | 0.00 | 0.00 | 63 | 1017.7 |
| 20260906221540 | 73 | 19 | 2.0 | 5.0 | 0.00 | 0.00 | 0.00 | 58 | 1017.7 |
| 20260906220039 | 74 | 144 | 0.0 | 4.0 | 0.00 | 0.00 | 0.00 | 59 | 1017.6 |
| 20260906214537 | 75 | 52 | 1.0 | 4.0 | 0.00 | 0.00 | 0.00 | 58 | 1017.5 |
| 20260906213038 | 76 | 86 | 1.0 | 4.0 | 0.00 | 0.00 | 0.00 | 58 | 1017.6 |
| 20260906211541 | 76 | 53 | 1.0 | 9.0 | 0.00 | 0.00 | 0.00 | 57 | 1017.7 |
| 20260906210036 | 76 | 59 | 0.0 | 9.0 | 0.00 | 0.00 | 0.00 | 63 | 1017.7 |
| 20260906204556 | 75 | 89 | 2.0 | 6.0 | 0.00 | 0.00 | 0.00 | 64 | 1017.7 |
| 20260906203134 | 75 | 327 | 1.0 | 8.0 | 0.00 | 0.00 | 0.00 | 66 | 1017.6 |
| 20260906201535 | 76 | 61 | 1.0 | 7.0 | 0.00 | 0.00 | 0.00 | 63 | 1017.6 |
| 20260906200033 | 76 | 98 | 2.0 | 7.0 | 0.00 | 0.00 | 0.00 | 67 | 1017.6 |
| 20260906194531 | 77 | 78 | 1.0 | 4.0 | 0.00 | 0.00 | 0.00 | 65 | 1017.6 |
| 20260906193031 | 76 | 343 | 2.0 | 5.0 | 0.00 | 0.00 | 0.00 | 64 | 1017.6 |
| 20260906191531 | 75 | 340 | 0.0 | 5.0 | 0.00 | 0.00 | 0.00 | 64 | 1017.6 |
| 20260906190031 | 75 | 300 | 1.0 | 8.0 | 0.00 | 0.00 | 0.00 | 64 | 1017.7 |
| 20260906184529 | 75 | 64 | 2.0 | 9.0 | 0.00 | 0.00 | 0.00 | 65 | 1017.6 |
| 20260906183029 | 75 | 277 | 1.0 | 8.0 | 0.00 | 0.00 | 0.00 | 64 | 1017.7 |
| 20260906181530 | 75 | 320 | 2.0 | 7.0 | 0.00 | 0.00 | 0.00 | 65 | 1017.8 |
| 20260906180052 | 76 | 348 | 1.0 | 10.0 | 0.00 | 0.00 | 0.00 | 63 | 1017.8 |
| 20260906174529 | 78 | 215 | 1.0 | 5.0 | 0.00 | 0.00 | 0.00 | 65 | 1017.9 |
| 20260906173025 | 77 | 61 | 1.0 | 6.0 | 0.00 | 0.00 | 0.00 | 63 | 1017.9 |
| 20260906171523 | 76 | 60 | 1.0 | 12.0 | 0.00 | 0.00 | 0.00 | 65 | 1017.9 |
| 20260906170023 | 77 | 9 | 3.0 | 9.0 | 0.00 | 0.00 | 0.00 | 64 | 1017.8 |
| 20260906164521 | 77 | 91 | 1.0 | 8.0 | 0.00 | 0.00 | 0.00 | 63 | 1017.9 |
| 20260906163018 | 76 | 121 | 2.0 | 8.0 | 0.00 | 0.00 | 0.00 | 68 | 1018.1 |
| 20260906161519 | 75 | 104 | 2.0 | 9.0 | 0.00 | 0.00 | 0.00 | 67 | 1018.1 |
| 20260906160015 | 75 | 51 | 1.0 | 4.0 | 0.00 | 0.00 | 0.00 | 66 | 1018.1 |
| 20260906154518 | 76 | 50 | 1.0 | 11.0 | 0.00 | 0.00 | 0.00 | 68 | 1018.0 |
| 20260906153008 | 75 | 42 | 1.0 | 6.0 | 0.00 | 0.00 | 0.00 | 71 | 1018.1 |
| 20260906151505 | 73 | 332 | 1.0 | 6.0 | 0.00 | 0.00 | 0.00 | 72 | 1018.1 |
| 20260906150004 | 73 | 38 | 0.0 | 11.0 | 0.00 | 0.00 | 0.00 | 72 | 1018.1 |
| 20260906144601 | 74 | 76 | 3.0 | 11.0 | 0.00 | 0.00 | 0.00 | 73 | 1017.8 |
| 20260906143103 | 73 | 113 | 1.0 | 6.0 | 0.00 | 0.00 | 0.00 | 80 | 1017.8 |
| 20260906141552 | 72 | 62 | 1.0 | 5.0 | 0.00 | 0.00 | 0.00 | 79 | 1017.8 |
| 20260906140049 | 71 | 55 | 3.0 | 7.0 | 0.00 | 0.00 | 0.00 | 84 | 1017.7 |
| 20260906134544 | 68 | 315 | 0.0 | 5.0 | 0.00 | 0.00 | 0.00 | 96 | 1017.5 |
| 20260906133041 | 65 | 84 | 1.0 | 5.0 | 0.00 | 0.00 | 0.00 | 98 | 1017.7 |
| 20260906131543 | 64 | 42 | 1.0 | 3.0 | 0.00 | 0.00 | 0.00 | 98 | 1017.6 |
| 20260906130036 | 64 | 299 | 0.0 | 3.0 | 0.00 | 0.00 | 0.00 | 98 | 1017.5 |
| 20260906124530 | 63 | 317 | 0.0 | 3.0 | 0.00 | 0.00 | 0.00 | 98 | 1017.4 |
| 20260906123027 | 61 | 316 | 0.0 | 4.0 | 0.00 | 0.00 | 0.00 | 98 | 1017.3 |
| 20260906121526 | 59 | 351 | 0.0 | 0.0 | 0.00 | 0.00 | 0.00 | 98 | 1017.3 |
| 20260906120023 | 58 | 351 | 0.0 | 0.0 | 0.00 | 0.00 | 0.00 | 97 | 1017.2 |
| 20260906114519 | 57 | 351 | 0.0 | 0.0 | 0.00 | 0.00 | 0.00 | 97 | 1016.9 |
| 20260906113021 | 57 | 351 | 0.0 | 0.0 | 0.00 | 0.00 | 0.00 | 96 | 1017.0 |
| 20260906111514 | 57 | 351 | 0.0 | 0.0 | 0.00 | 0.00 | 0.00 | 96 | 1016.7 |
| 20260906110010 | 57 | 351 | 0.0 | 0.0 | 0.00 | 0.00 | 0.00 | 96 | 1016.7 |
| 20260906104508 | 58 | 351 | 0.0 | 0.0 | 0.00 | 0.00 | 0.00 | 96 | 1016.4 |
| 20260906103005 | 58 | 351 | 0.0 | 0.0 | 0.00 | 0.00 | 0.00 | 97 | 1016.2 |
| 20260906101505 | 58 | 351 | 0.0 | 1.0 | 0.00 | 0.00 | 0.00 | 96 | 1016.2 |
| 20260906100002 | 57 | 351 | 0.0 | 1.0 | 0.00 | 0.00 | 0.00 | 96 | 1016.1 |
| 20260906094500 | 57 | 351 | 0.0 | 0.0 | 0.00 | 0.00 | 0.00 | 95 | 1016.0 |
| 20260906093059 | 57 | 351 | 0.0 | 0.0 | 0.00 | 0.00 | 0.00 | 95 | 1015.8 |
| 20260906091603 | 58 | 351 | 0.0 | 0.0 | 0.00 | 0.00 | 0.00 | 94 | 1015.5 |
| 20260906090058 | 58 | 351 | 0.0 | 0.0 | 0.00 | 0.00 | 0.00 | 95 | 1015.5 |
| 20260906084554 | 58 | 351 | 0.0 | 0.0 | 0.00 | 0.00 | 0.00 | 95 | 1015.4 |
| 20260906083053 | 59 | 351 | 0.0 | 0.0 | 0.00 | 0.00 | 0.00 | 94 | 1015.2 |
| 20260906081548 | 59 | 351 | 0.0 | 0.0 | 0.00 | 0.00 | 0.00 | 95 | 1015.1 |
| 20260906080050 | 60 | 351 | 0.0 | 0.0 | 0.00 | 0.00 | 0.00 | 95 | 1015.1 |
| 20260906074546 | 60 | 351 | 0.0 | 0.0 | 0.00 | 0.00 | 0.00 | 95 | 1015.1 |
| 20260906073045 | 60 | 351 | 0.0 | 0.0 | 0.00 | 0.00 | 0.00 | 95 | 1015.0 |
| 20260906071647 | 60 | 351 | 0.0 | 0.0 | 0.00 | 0.00 | 0.00 | 95 | 1014.9 |
| 20260906070043 | 61 | 351 | 0.0 | 0.0 | 0.00 | 0.00 | 0.00 | 95 | 1014.9 |
| 20260906064542 | 61 | 351 | 0.0 | 0.0 | 0.00 | 0.00 | 0.00 | 95 | 1015.0 |
| 20260906063042 | 62 | 351 | 0.0 | 0.0 | 0.00 | 0.00 | 0.00 | 95 | 1014.9 |
| 20260906061541 | 62 | 351 | 0.0 | 0.0 | 0.00 | 0.00 | 0.00 | 96 | 1014.9 |
| 20260906060041 | 62 | 351 | 0.0 | 1.0 | 0.00 | 0.00 | 0.00 | 96 | 1014.9 |
| 20260906054541 | 62 | 351 | 0.0 | 1.0 | 0.00 | 0.00 | 0.00 | 96 | 1014.9 |
| 20260906053044 | 62 | 351 | 0.0 | 1.0 | 0.00 | 0.00 | 0.00 | 96 | 1015.0 |
| 20260906051537 | 61 | 351 | 0.0 | 1.0 | 0.00 | 0.00 | 0.00 | 96 | 1014.9 |
| 20260906050036 | 61 | 351 | 0.0 | 2.0 | 0.00 | 0.00 | 0.00 | 96 | 1014.9 |
| 20260906044534 | 61 | 351 | 0.0 | 3.0 | 0.00 | 0.00 | 0.00 | 95 | 1014.9 |
| 20260906043032 | 60 | 351 | 0.0 | 0.0 | 0.00 | 0.00 | 0.00 | 95 | 1014.8 |
| 20260906041528 | 60 | 351 | 0.0 | 1.0 | 0.00 | 0.00 | 0.00 | 94 | 1014.7 |
| 20260906040030 | 60 | 351 | 0.0 | 0.0 | 0.00 | 0.00 | 0.00 | 93 | 1014.7 |
| 20260906034535 | 59 | 351 | 0.0 | 0.0 | 0.00 | 0.00 | 0.00 | 92 | 1014.6 |
| 20260906033028 | 60 | 351 | 0.0 | 0.0 | 0.00 | 0.00 | 0.00 | 91 | 1014.6 |
| 20260906031523 | 60 | 351 | 0.0 | 0.0 | 0.00 | 0.00 | 0.00 | 91 | 1014.5 |
| 20260906030023 | 61 | 351 | 0.0 | 0.0 | 0.00 | 0.00 | 0.00 | 91 | 1014.5 |
| 20260906024522 | 61 | 351 | 0.0 | 0.0 | 0.00 | 0.00 | 0.00 | 90 | 1014.4 |
| 20260906023022 | 62 | 351 | 0.0 | 0.0 | 0.00 | 0.00 | 0.00 | 90 | 1014.5 |
| 20260906021523 | 62 | 351 | 0.0 | 0.0 | 0.00 | 0.00 | 0.00 | 90 | 1014.3 |
| 20260906020020 | 62 | 351 | 0.0 | 0.0 | 0.00 | 0.00 | 0.00 | 90 | 1014.2 |
| 20260906014533 | 62 | 351 | 0.0 | 0.0 | 0.00 | 0.00 | 0.00 | 90 | 1014.2 |
| 20260906013019 | 62 | 351 | 0.0 | 0.0 | 0.00 | 0.00 | 0.00 | 90 | 1014.2 |
| 20260906011532 | 62 | 351 | 0.0 | 0.0 | 0.00 | 0.00 | 0.00 | 89 | 1014.1 |
| 20260906010018 | 62 | 351 | 0.0 | 0.0 | 0.00 | 0.00 | 0.00 | 88 | 1014.1 |
| 20260906004532 | 63 | 351 | 0.0 | 0.0 | 0.00 | 0.00 | 0.00 | 87 | 1013.9 |
| 20260906003022 | 63 | 351 | 0.0 | 0.0 | 0.00 | 0.00 | 0.00 | 85 | 1013.9 |
| 20260906001518 | 65 | 351 | 0.0 | 0.0 | 0.00 | 0.00 | 0.00 | 82 | 1013.9 |
| 20260906000016 | 66 | 351 | 0.0 | 0.0 | 0.00 | 0.00 | 0.00 | 79 | 1013.7 |